SCP
0 0 0 0 0 0 0 0 0 0 0 0 0 0 0 0 0 0 0 0 0 0 0 0 0 0 0 0 0 0 0 0 0 0 0 0 0 0
0 0 0 0 0 0 0 0 0 0 0 0 0 0 0 0 0 0 0 0 0 0 0 0 0 0 0 0 0 0 0 0 0 0 0 0 0 0
0 0 0 0 0 0 0 0 0 0 0 0 0 0 0 0 0 0 0 0 0 0 0 0 0 0 0 0 0 0 0 0 0 0 0 0 0 0
0 0 0 0 0 0 0 0 0 0 0 0 0 0 0 0 0 0 0 0 0 0 0 0 0 0 0 0 0 0 0 0 0 0 0 0 0 0
0 0 0 0 0 0 0 0 0 0 0 0 0 0 0 0 0 0 0 0 0 0 0 0 0 0 0 0 0 0 0 0 0 0 0 0 0 0
0 0 0 0 0 0 0 0 0 0 0 0 0 0 0 0 0 0 0 0 0 0 0 0 0 0 0 0 0 0 0 0 0 0 0 0 0 0
0 0 0 0 0 0 0 0 0 0 0 0 0 0 0 0 0 0 0 0 0 0 0 0 0 0 0 0 0 0 0 0 0 0 0 0 0 0
0 0 0 0 0 0 0 0 0 0 0 0 0 0 0 0 0 0 0 0 0 0 0 0 0 0 0 0 0 0 0 0 0 0 0 0 0 0
0 1 0 0 0 0 0 0 0 0 0 0 0 0 0 0 0 0 0 0 0 0 0 0 0 0 0 0 0 0 0 0 0 0 0 0 0 0
0 1 1 0 0 0 0 0 0 0 0 0 0 0 0 0 0 0 0 0 0 0 0 0 0 0 0 0 0 0 0 0 0 0 0 0 0 0
0 1 1 0 0 0 0 0 0 0 0 0 0 0 0 0 0 0 0 0 0 0 0 0 0 0 0 0 0 0 0 0 0 0 0 0 0 0
1 1 0 0 0 0 0 0 0 0 0 0 0 0 0 0 0 0 0 0 0 0 0 0 0 0 0 0 0 0 0 0 0 0 0 0 0 0
1 2 1 0 0 0 0 0 0 0 0 0 0 0 0 0 0 0 0 0 0 0 0 0 0 0 0 0 0 0 0 0 0 0 0 0 0 0
3 2 2 0 0 0 0 0 0 0 0 0 0 0 0 0 0 0 0 0 0 0 0 0 0 0 0 0 0 0 0 0 0 0 0 0 0 0
1 2 1 0 0 0 0 0 0 0 0 0 0 0 0 0 0 0 0 0 0 0 0 0 0 0 0 0 0 0 0 0 0 0 0 0 0 0
0 0 0 0 0 0 0 0 0 0 0 0 0 0 0 0 0 0 0 0 0 0 0 0 0 0 0 0 0 0 0 0 0 0 0 0 0 0
0 0 0 0 0 0 0 0 0 0 0 0 0 0 0 0 0 0 0 0 0 0 0 0 0 0 0 0 0 0 0 0 0 0 0 0 0 0
0 0 0 0 0 0 0 0 0 0 0 0 0 0 0 0 0 0 0 0 0 0 0 0 0 0 0 0 0 0 0 0 0 0 0 0 0 0
0 0 0 0 0 0 0 0 0 0 0 0 0 0 0 0 0 0 0 0 0 0 0 0 0 0 0 0 0 0 0 0 0 0 0 0 0 0
0 0 0 0 0 0 0 0 0 0 0 0 0 0 0 0 0 0 0 0 0 0 0 0 0 0 0 0 0 0 0 0 0 0 0 0 0 0
0 0 0 0 0 0 0 0 0 0 0 0 0 0 0 0 0 0 0 0 0 0 0 0 0 0 0 0 0 0 0 0 0 0 0 0 0 0
0 0 0 0 0 0 0 0 0 0 0 0 0 0 0 0 0 0 0 0 0 0 0 0 0 0 0 0 0 0 0 0 0 0 0 0 0 0
0 0 0 0 0 0 0 0 0 0 0 0 0 0 0 0 0 0 0 0 0 0 0 0 0 0 0 0 0 0 0 0 0 0 0 0 0 0
Wind_Speed_500mb
16 16 15 15 16 16 16 17 16 16 21 18 21 27 32 36 37 34 33 34 37 39 41 42 41 38 38 37 35 33 34 39 39 35 30 28 28 29
17 19 20 19 19 19 21 21 20 20 18 25 27 29 30 34 35 33 34 33 33 33 32 31 30 28 30 35 39 43 45 40 41 42 42 41 41 41
22 23 24 24 25 24 23 23 24 26 26 26 32 33 31 30 30 32 35 31 30 32 31 30 29 28 28 30 35 37 38 36 38 43 46 49 52 52
27 28 28 29 30 29 28 27 26 29 31 36 36 35 34 34 32 33 29 29 32 32 36 35 34 36 36 37 39 39 41 43 45 47 49 48 47 52
33 32 32 34 34 35 33 31 33 32 32 34 35 35 37 37 35 32 28 30 32 33 33 30 34 34 35 39 42 43 41 43 42 41 42 46 52 53
38 37 38 37 37 38 39 36 35 34 35 35 36 35 34 34 35 31 29 32 34 34 28 27 32 35 37 35 37 39 36 36 40 43 39 38 43 46
47 45 45 40 41 43 42 39 39 41 36 34 35 36 33 30 27 28 34 36 36 36 40 29 30 32 29 31 31 33 46 52 51 47 43 47 51 49
56 53 52 47 49 46 44 47 40 39 38 37 36 34 37 38 32 29 31 31 27 28 46 43 31 31 30 30 39 45 38 45 39 37 39 46 49 53
58 58 59 57 51 50 48 49 45 40 38 39 42 37 37 35 33 33 31 34 37 38 47 42 31 28 36 38 41 41 40 47 54 59 60 69 59 52
57 60 62 59 56 54 53 52 55 43 36 41 41 40 36 32 31 29 31 39 41 34 40 41 33 32 40 37 37 36 47 58 62 65 60 48 47 44
59 62 66 65 61 53 62 64 58 51 40 39 42 36 32 31 28 28 30 27 33 35 35 33 34 40 41 38 36 52 53 52 49 45 44 42 38 34
65 74 71 66 66 59 71 70 59 51 42 49 39 33 29 27 25 26 29 27 32 37 28 39 37 42 48 35 55 48 46 45 49 50 42 43 44 33
72 81 75 63 65 64 64 73 63 45 44 43 37 29 27 26 25 26 27 30 33 32 35 44 36 43 47 64 60 52 43 48 49 42 38 37 35 35
75 81 76 68 60 63 66 71 61 45 41 40 31 28 24 16 18 27 30 32 33 35 38 43 37 42 54 65 63 52 54 54 50 43 32 40 48 54
71 74 77 65 55 56 70 77 51 45 45 41 30 27 23 23 22 26 32 33 32 33 36 39 42 45 49 59 64 66 65 55 41 42 45 43 54 43
60 64 71 65 52 55 57 64 53 49 47 38 30 27 23 27 24 26 29 27 31 25 31 37 45 51 53 53 58 59 57 52 50 47 43 41 35 28
45 62 65 62 55 59 55 55 55 55 51 39 31 27 27 25 28 28 24 26 29 23 24 29 36 45 46 51 59 58 55 46 49 45 42 35 25 22
48 64 62 55 49 51 61 59 59 58 50 42 31 29 29 24 24 27 21 24 29 22 24 33 39 44 48 48 50 50 40 48 45 39 34 30 26 22
51 60 62 53 49 47 62 61 59 57 45 40 33 30 28 26 23 24 19 22 22 19 24 32 38 47 56 62 54 43 41 47 40 36 31 28 32 26
60 63 62 57 49 51 54 59 62 57 45 44 36 32 29 26 23 18 19 18 17 19 24 31 36 45 48 52 54 46 52 40 39 35 36 30 19 9
59 58 60 57 60 51 49 55 57 48 46 43 38 35 27 25 23 17 16 20 19 18 24 30 35 48 42 45 43 41 37 42 46 39 33 30 22 10
50 52 51 51 52 55 52 49 46 46 47 46 46 39 33 27 23 19 13 10 12 17 22 27 35 41 43 42 42 40 37 40 35 27 22 21 22 17
48 46 46 45 50 53 48 40 44 48 46 50 49 39 32 23 24 18 11 10 6 13 19 27 35 41 41 37 37 32 38 46 46 42 28 21 17 18
Wind_Direction_500mb
324 319 314 302 304 303 302 302 302 318 323 318 296 296 289 292 296 297 299 302 302 303 304 303 302 299 294 289 293 295 292 285 283 284 282 282 281 281
313 313 308 306 309 308 307 306 302 295 294 303 302 297 296 298 301 301 304 307 310 310 311 314 316 312 301 292 291 291 292 288 279 275 275 275 275 275
307 308 311 311 308 308 305 303 302 300 293 296 309 307 309 306 305 310 312 315 320 320 323 323 320 317 311 302 295 292 291 285 281 279 275 277 273 270
308 303 303 309 307 304 303 297 298 295 297 306 310 313 312 312 312 313 312 319 322 325 323 310 310 310 304 294 287 287 285 284 282 282 283 281 277 269
296 299 297 295 301 301 301 301 298 294 299 303 305 311 315 316 318 316 314 319 320 319 317 309 305 308 303 299 295 298 300 301 299 295 294 287 277 271
287 288 291 294 294 298 298 294 292 288 294 298 302 302 306 310 315 313 316 316 315 321 319 312 308 312 310 306 305 304 300 297 292 298 292 286 284 279
281 284 283 291 290 287 289 290 287 282 281 290 298 298 303 307 305 305 314 314 322 322 323 319 310 316 316 320 321 308 305 301 301 295 282 277 282 281
276 281 278 277 282 284 283 285 288 284 287 293 300 298 305 307 304 305 308 315 319 310 320 316 312 313 322 321 306 310 306 301 295 284 287 284 283 280
276 275 272 275 276 281 284 280 279 281 286 289 294 297 297 298 295 302 306 312 311 315 315 312 315 308 316 316 308 316 316 301 291 287 286 286 288 269
274 274 272 271 273 274 276 275 273 271 273 275 282 284 287 286 290 294 301 306 311 315 308 307 315 310 316 321 311 309 304 310 303 298 299 292 278 265
278 273 271 266 269 265 269 266 265 266 268 271 269 278 281 283 286 292 303 298 309 306 299 297 315 313 322 321 316 313 313 317 324 321 303 299 294 279
281 278 268 265 265 260 262 262 256 265 268 273 268 273 276 273 275 289 293 294 301 304 306 307 311 322 323 318 322 317 315 317 324 324 312 295 294 285
279 274 274 274 267 261 264 268 263 264 262 269 276 283 290 288 289 294 292 296 298 296 300 308 311 317 316 316 320 318 313 317 316 315 315 303 297 285
275 281 281 279 272 264 259 266 258 254 264 267 271 281 282 275 278 296 298 307 308 305 300 305 308 315 317 318 318 318 316 313 310 303 299 297 288 280
277 277 282 284 267 263 259 257 247 252 258 261 272 277 275 271 284 302 307 312 310 308 305 304 311 315 318 316 313 317 319 319 312 307 308 300 295 302
279 282 276 277 271 262 261 251 243 251 254 257 262 267 283 287 290 303 305 310 309 308 308 306 313 321 317 316 317 320 322 316 314 314 309 304 300 296
273 268 271 273 266 259 258 251 246 249 249 245 253 258 263 281 284 298 309 309 304 302 307 311 311 321 321 320 319 319 320 319 320 315 315 311 306 294
260 266 270 274 272 256 253 250 249 249 242 239 243 250 259 274 272 291 301 306 302 303 312 318 323 327 328 330 326 323 326 326 325 321 320 317 311 301
259 266 269 274 270 260 255 246 253 247 237 231 235 240 253 265 267 282 290 298 301 302 316 324 330 335 334 332 334 332 331 332 330 330 326 321 312 313
262 266 273 274 270 265 260 248 251 241 224 224 228 230 244 252 272 261 281 287 294 305 324 330 330 335 336 333 332 337 331 341 336 333 332 336 335 344
264 267 272 278 273 267 260 251 251 234 217 221 224 221 234 233 256 243 268 286 293 311 328 332 329 341 339 336 339 343 346 338 335 332 337 341 348 341
268 269 271 274 272 267 257 254 241 215 205 215 216 217 222 231 221 223 244 254 283 319 328 337 339 341 345 345 342 343 346 358 357 358 354 348 325 313
272 275 274 272 273 272 256 243 220 206 205 214 213 217 213 229 214 218 215 215 269 327 330 344 345 348 349 349 349 350 347 9 11 17 14 2 349 333
Wind_Speed_850mb
16 16 15 15 16 16 16 17 16 16 21 18 21 27 32 36 37 34 33 34 37 39 41 42 41 38 38 37 35 33 34 39 39 35 30 28 28 29
17 19 20 19 19 19 21 21 20 20 18 25 27 29 30 34 35 33 34 33 33 33 32 31 30 28 30 35 39 43 45 40 41 42 42 41 41 41
22 23 24 24 25 24 23 23 24 26 26 26 32 33 31 30 30 32 35 31 30 32 31 30 29 28 28 30 35 37 38 36 38 43 46 49 52 52
27 28 28 29 30 29 28 27 26 29 31 36 36 35 34 34 32 33 29 29 32 32 36 35 34 36 36 37 39 39 41 43 45 47 49 48 47 52
33 32 32 34 34 35 33 31 33 32 32 34 35 35 37 37 35 32 28 30 32 33 33 30 34 34 35 39 42 43 41 43 42 41 42 46 52 53
38 37 38 37 37 38 39 36 35 34 35 35 36 35 34 34 35 31 29 32 34 34 28 27 32 35 37 35 37 39 36 36 40 43 39 38 43 46
47 45 45 40 41 43 42 39 39 41 36 34 35 36 33 30 27 28 34 36 36 36 40 29 30 32 29 31 31 33 46 52 51 47 43 47 51 49
56 53 52 47 49 46 44 47 40 39 38 37 36 34 37 38 32 29 31 31 27 28 46 43 31 31 30 30 39 45 38 45 39 37 39 46 49 53
58 58 59 57 51 50 48 49 45 40 38 39 42 37 37 35 33 33 31 34 37 38 47 42 31 28 36 38 41 41 40 47 54 59 60 69 59 52
57 60 62 59 56 54 53 52 55 43 36 41 41 40 36 32 31 29 31 39 41 34 40 41 33 32 40 37 37 36 47 58 62 65 60 48 47 44
59 62 66 65 61 53 62 64 58 51 40 39 42 36 32 31 28 28 30 27 33 35 35 33 34 40 41 38 36 52 53 52 49 45 44 42 38 34
65 74 71 66 66 59 71 70 59 51 42 49 39 33 29 27 25 26 29 27 32 37 28 39 37 42 48 35 55 48 46 45 49 50 42 43 44 33
72 81 75 63 65 64 64 73 63 45 44 43 37 29 27 26 25 26 27 30 33 32 35 44 36 43 47 64 60 52 43 48 49 42 38 37 35 35
75 81 76 68 60 63 66 71 61 45 41 40 31 28 24 16 18 27 30 32 33 35 38 43 37 42 54 65 63 52 54 54 50 43 32 40 48 54
71 74 77 65 55 56 70 77 51 45 45 41 30 27 23 23 22 26 32 33 32 33 36 39 42 45 49 59 64 66 65 55 41 42 45 43 54 43
60 64 71 65 52 55 57 64 53 49 47 38 30 27 23 27 24 26 29 27 31 25 31 37 45 51 53 53 58 59 57 52 50 47 43 41 35 28
45 62 65 62 55 59 55 55 55 55 51 39 31 27 27 25 28 28 24 26 29 23 24 29 36 45 46 51 59 58 55 46 49 45 42 35 25 22
48 64 62 55 49 51 61 59 59 58 50 42 31 29 29 24 24 27 21 24 29 22 24 33 39 44 48 48 50 50 40 48 45 39 34 30 26 22
51 60 62 53 49 47 62 61 59 57 45 40 33 30 28 26 23 24 19 22 22 19 24 32 38 47 56 62 54 43 41 47 40 36 31 28 32 26
60 63 62 57 49 51 54 59 62 57 45 44 36 32 29 26 23 18 19 18 17 19 24 31 36 45 48 52 54 46 52 40 39 35 36 30 19 9
59 58 60 57 60 51 49 55 57 48 46 43 38 35 27 25 23 17 16 20 19 18 24 30 35 48 42 45 43 41 37 42 46 39 33 30 22 10
50 52 51 51 52 55 52 49 46 46 47 46 46 39 33 27 23 19 13 10 12 17 22 27 35 41 43 42 42 40 37 40 35 27 22 21 22 17
48 46 46 45 50 53 48 40 44 48 46 50 49 39 32 23 24 18 11 10 6 13 19 27 35 41 41 37 37 32 38 46 46 42 28 21 17 18
Wind_Direction_850mb
324 319 314 302 304 303 302 302 302 318 323 318 296 296 289 292 296 297 299 302 302 303 304 303 302 299 294 289 293 295 292 285 283 284 282 282 281 281
313 313 308 306 309 308 307 306 302 295 294 303 302 297 296 298 301 301 304 307 310 310 311 314 316 312 301 292 291 291 292 288 279 275 275 275 275 275
307 308 311 311 308 308 305 303 302 300 293 296 309 307 309 306 305 310 312 315 320 320 323 323 320 317 311 302 295 292 291 285 281 279 275 277 273 270
308 303 303 309 307 304 303 297 298 295 297 306 310 313 312 312 312 313 312 319 322 325 323 310 310 310 304 294 287 287 285 284 282 282 283 281 277 269
296 299 297 295 301 301 301 301 298 294 299 303 305 311 315 316 318 316 314 319 320 319 317 309 305 308 303 299 295 298 300 301 299 295 294 287 277 271
287 288 291 294 294 298 298 294 292 288 294 298 302 302 306 310 315 313 316 316 315 321 319 312 308 312 310 306 305 304 300 297 292 298 292 286 284 279
281 284 283 291 290 287 289 290 287 282 281 290 298 298 303 307 305 305 314 314 322 322 323 319 310 316 316 320 321 308 305 301 301 295 282 277 282 281
276 281 278 277 282 284 283 285 288 284 287 293 300 298 305 307 304 305 308 315 319 310 320 316 312 313 322 321 306 310 306 301 295 284 287 284 283 280
276 275 272 275 276 281 284 280 279 281 286 289 294 297 297 298 295 302 306 312 311 315 315 312 315 308 316 316 308 316 316 301 291 287 286 286 288 269
274 274 272 271 273 274 276 275 273 271 273 275 282 284 287 286 290 294 301 306 311 315 308 307 315 310 316 321 311 309 304 310 303 298 299 292 278 265
278 273 271 266 269 265 269 266 265 266 268 271 269 278 281 283 286 292 303 298 309 306 299 297 315 313 322 321 316 313 313 317 324 321 303 299 294 279
281 278 268 265 265 260 262 262 256 265 268 273 268 273 276 273 275 289 293 294 301 304 306 307 311 322 323 318 322 317 315 317 324 324 312 295 294 285
279 274 274 274 267 261 264 268 263 264 262 269 276 283 290 288 289 294 292 296 298 296 300 308 311 317 316 316 320 318 313 317 316 315 315 303 297 285
275 281 281 279 272 264 259 266 258 254 264 267 271 281 282 275 278 296 298 307 308 305 300 305 308 315 317 318 318 318 316 313 310 303 299 297 288 280
277 277 282 284 267 263 259 257 247 252 258 261 272 277 275 271 284 302 307 312 310 308 305 304 311 315 318 316 313 317 319 319 312 307 308 300 295 302
279 282 276 277 271 262 261 251 243 251 254 257 262 267 283 287 290 303 305 310 309 308 308 306 313 321 317 316 317 320 322 316 314 314 309 304 300 296
273 268 271 273 266 259 258 251 246 249 249 245 253 258 263 281 284 298 309 309 304 302 307 311 311 321 321 320 319 319 320 319 320 315 315 311 306 294
260 266 270 274 272 256 253 250 249 249 242 239 243 250 259 274 272 291 301 306 302 303 312 318 323 327 328 330 326 323 326 326 325 321 320 317 311 301
259 266 269 274 270 260 255 246 253 247 237 231 235 240 253 265 267 282 290 298 301 302 316 324 330 335 334 332 334 332 331 332 330 330 326 321 312 313
262 266 273 274 270 265 260 248 251 241 224 224 228 230 244 252 272 261 281 287 294 305 324 330 330 335 336 333 332 337 331 341 336 333 332 336 335 344
264 267 272 278 273 267 260 251 251 234 217 221 224 221 234 233 256 243 268 286 293 311 328 332 329 341 339 336 339 343 346 338 335 332 337 341 348 341
268 269 271 274 272 267 257 254 241 215 205 215 216 217 222 231 221 223 244 254 283 319 328 337 339 341 345 345 342 343 346 358 357 358 354 348 325 313
272 275 274 272 273 272 256 243 220 206 205 214 213 217 213 229 214 218 215 215 269 327 330 344 345 348 349 349 349 350 347 9 11 17 14 2 349 333